This is the latest recevied weather packets stored in our database for station/object IZ6UQU-13. If no packets are shown the sender has not sent any weather packets the latest 10 day(s).
| Time | Temp. | Humidity | Pressure | Rain* | Wind** | Luminosity | Snow |
|---|---|---|---|---|---|---|---|
| 1777680605 | 3.89° C | 64% | 964 hPa | 0 mm | - | - | - |
| 1777680305 | 3.89° C | 61% | 963.9 hPa | 0 mm | - | - | - |
| 1777680005 | 3.89° C | 62% | 964 hPa | 0 mm | - | - | - |
| 1777679705 | 3.89° C | 61% | 963.9 hPa | 0 mm | - | - | - |
| 1777679405 | 3.89° C | 62% | 964 hPa | 0 mm | - | - | - |
| 1777679105 | 4.44° C | 60% | 964.1 hPa | 0 mm | - | - | - |
| 1777678805 | 4.44° C | 59% | 963.9 hPa | 0 mm | - | - | - |
| 1777678505 | 3.89° C | 61% | 964 hPa | 0 mm | - | - | - |
| 1777678205 | 3.89° C | 61% | 964.1 hPa | 0 mm | - | - | - |
| 1777677905 | 4.44° C | 62% | 963.9 hPa | 0 mm | - | - | - |
| 1777677605 | 4.44° C | 60% | 964 hPa | 0 mm | - | - | - |
| 1777677305 | 5° C | 56% | 963.9 hPa | 0 mm | - | - | - |
| 1777677005 | 5° C | 56% | 964 hPa | 0 mm | - | - | - |
| 1777676705 | 5.56° C | 57% | 964 hPa | 0 mm | - | - | - |
| 1777676407 | 5.56° C | 54% | 964 hPa | 0 mm | - | - | - |
| 1777676105 | 5.56° C | 54% | 964 hPa | 0 mm | - | - | - |
| 1777675805 | 5.56° C | 53% | 964 hPa | 0 mm | - | - | - |
| 1777675505 | 6.11° C | 53% | 964 hPa | 0 mm | - | - | - |
| 1777675205 | 6.11° C | 52% | 963.9 hPa | 0 mm | - | - | - |
| 1777674905 | 6.67° C | 51% | 963.7 hPa | 0 mm | - | - | - |
| 1777674605 | 6.67° C | 50% | 963.7 hPa | 0 mm | - | - | - |
| 1777674306 | 7.78° C | 45% | 963.6 hPa | 0 mm | - | - | - |
| 1777674005 | 7.78° C | 44% | 963.6 hPa | 0 mm | - | - | - |
| 1777673705 | 7.78° C | 43% | 963.6 hPa | 0 mm | - | - | - |
| 1777673405 | 8.33° C | 42% | 963.5 hPa | 0 mm | - | - | - |
* Rain latest hour (hover to see other rain measurements)
** Current wind speed in m/s (hover to see current wind gust speed)